Welcome to the New NWS' Forecast!
Most changes are behind the scenes, but click here for differences you might notice.

Regional Weather Roundup (RWR)

Issued by National Weather Service (NWS)

                            
099 
ASUS46 KSEW 220910
RWRWA 

WASHINGTON REGIONAL WEATHER ROUNDUP
NATIONAL WEATHER SERVICE SEATTLE WA
200 AM PDT SAT SEP 22 2018

NOTE:"FAIR" INDICATES FEW OR NO CLOUDS BELOW 12,000 FEET WITH NO 
SIGNIFICANT WEATHER AND/OR OBSTRUCTIONS TO VISIBILITY.

WAZ507-509-555>559-221000-
SEATTLE, TACOMA, EVERETT, AND VICINITY
  
CITY           SKY/WX    TMP DP  RH WIND       PRES   REMARKS
EVERETT        MOCLDY    59  57  93 SE17      29.85R                  
BOEING FIELD   MOCLDY    61  58  90 S9        29.87R                  
RENTON         CLOUDY    62  58  86 VRB3      29.87R                  
SEATAC AIRPORT CLOUDY    61  55  81 S10       29.88R                  
JBLM-MCCHORD   MOCLDY    58  58 100 S6        29.87R                  
PUYALLUP       MOCLDY    61  57  88 VRB5      29.88S                  
BREMERTON      CLOUDY    57  56  96 S6        29.85S                  
JBLM-FT LEWIS  NOT AVBL                                               
TACOMA NARROWS CLOUDY    58  55  90 S8        29.87R                  
$$
 
WAZ001-503-506-510-514-515-221000-
NORTH INTERIOR
  
CITY           SKY/WX    TMP DP  RH WIND       PRES   REMARKS
BELLINGHAM     LGT RAIN  61  54  77 S14G24    29.79R                  
FRIDAY HARBOR  CLOUDY    56  53  90 CALM      29.80S FOG              
EASTSOUND      CLOUDY    59  57  94 S8        29.79R                  
PORT ANGELES   CLOUDY    55  54  96 CALM      29.79S                  
EDIZ HOOK      FOG       52  52  99 CALM      29.79R VSB 1/2          
PORT TOWNSEND  CLOUDY    61  55  82 VRB5G13   29.78R                  
NAS WHIDBEY    MOCLDY    63  55  75 S28G35    29.83R                  
ARLINGTON      PTCLDY    59  57  93 SE20      29.84R                  
BURLINGTON     CLOUDY    61  57  88 S8G17     29.81S                  
$$
 
WAZ020-022-039-040-504-511-512-221000-
SOUTHWEST INTERIOR
  
CITY           SKY/WX    TMP DP  RH WIND       PRES   REMARKS
SHELTON        PTCLDY    60  55  83 S15       29.83S                  
OLYMPIA        MOCLDY    57  55  93 S7        29.86S                  
CHEHALIS       MOCLDY    63  55  77 S10       29.88R                  
KELSO          NOT AVBL                                               
VANCOUVER      CLOUDY    61  58  90 SE8       29.94R                  
SCAPPOOSE, OR  PTCLDY    57  54  89 SE5       29.91F                  
PORTLAND, OR   CLOUDY    61  56  83 S14       29.95R                  
$$
 
WAZ021-516-517-221000-
WASHINGTON COAST
  
CITY           SKY/WX    TMP DP  RH WIND       PRES   REMARKS
FORKS          LGT RAIN  58  57  97 S10G22    29.77S FOG              
HOQUIAM        CLOUDY    61  59  93 S18       29.83F FOG              
ASTORIA, OR    CLOUDY    61  58  90 S17G26    29.87F                  
$$
 
WAZ019-023-024-040-567>569-221000-
CASCADE MOUNTAINS AND COLUMBIA GORGE
  
CITY           SKY/WX    TMP DP  RH WIND       PRES   REMARKS
STAMPEDE PASS  MOCLDY    50  47  89 VRB5      29.92S                  
TROUTDALE, OR  LGT RAIN  60  57  89 S6        29.96R                  
HOOD RIVER, OR CLOUDY    59  52  77 W7        29.92R                  
THE DALLES, OR NOT AVBL                                               
$$

WAZ026-027-041>044-520-521-221000-
EAST SLOPES
  
CITY           SKY/WX    TMP DP  RH WIND       PRES   REMARKS
OMAK           CLEAR     52  49  89 NW6       29.79S                  
WENATCHEE      PTCLDY    60  47  61 W5        29.81R                  
ELLENSBURG     MOCLDY    53  46  77 CALM      29.85R                  
YAKIMA         MOCLDY    64  46  52 CALM      29.84S                  
SUNNYSIDE ARPT CLOUDY    68  49  51 W15G22    29.85R                  
YAKIMA TC      NOT AVBL                                               
$$

WAZ028-034-035-221000-
COLUMBIA BASIN
  
CITY           SKY/WX    TMP DP  RH WIND       PRES   REMARKS
EPHRATA        MOCLDY    58  43  57 S8        29.81R                  
MOSES LAKE     LGT RAIN  64  47  53 S7        29.82S                  
PASCO          CLOUDY    68  42  38 CALM      29.86R                  
RICHLAND ARPT  CLOUDY    68  47  48 SW5       29.85S                  
HERMISTON, OR  CLOUDY    68  46  45 SW10      29.87S                  
$$

WAZ036>038-221000-
NORTHEAST WASHINGTON
  
CITY           SKY/WX    TMP DP  RH WIND       PRES   REMARKS
SPOKANE GEIGER CLOUDY    62  37  39 SW15      29.85S                  
SPOKANE FELTS  CLOUDY    57  41  55 CALM      29.86R                  
FAIRCHILD AFB  NOT AVBL                                               
COEURDALENE,ID MOCLDY    51  41  68 E3        29.87S                  
DEER PARK      CLOUDY    50  40  68 CALM      29.85S                  
$$

WAZ029>033-221000-
SOUTHEAST WASHINGTON
  
CITY           SKY/WX    TMP DP  RH WIND       PRES   REMARKS
PULLMAN        CLOUDY    61  35  37 VRB3      29.93R                  
LEWISTON, ID   CLOUDY    62  38  40 CALM      29.87R                  
WALLA WALLA    CLOUDY    67  39  35 S6        29.90R                  
PENDLETON, OR  CLOUDY    64  42  44 SW8       29.91R                  
$$